Location: Alta
(39.2070°N, 120.8111°W)
Time: 06:05:07
(UTC+00:00)

CZ-4B DEB - Pass Details

Date: 06 December 2023
Orbit: 838 x 858 km, 99.0° (Epoch: 02 March)

Event Time Altitude Azimuth Distance (km) Brightness Sun altitude
Rises 01:37:08 0° 118° (ESE) 3,420 7.0 -10.9°
Enters shadow 01:37:11 - 118° (ESE) 3,402 7.0 -10.9°
Exits shadow 01:42:00 15° 83° (E) 2,168 5.7 -11.8°
Maximum altitude 01:43:44 17° 61° (ENE) 2,047 5.6 -12.1°
Drops below altitude 10° 01:47:08 10° 23° (NNE) 2,501 6.3 -12.7°
Sets 01:50:20 0° 4° (N) 3,442 7.2 -13.3°
